Regional Weather Roundup
Issued by NWS Cleveland, OH

Home | Current Version | Previous Version | Graphics & Text | Print | Product List | Glossary On
Versions: 1 2 3 4 5 6 7 8 9 10 11 12 13 14 15 16 17 18 19 20 21 22 23 24 25 26 27 28 29 30 31 32 33 34 35 36 37 38 39 40 41 42 43 44 45 46 47 48 49 50
000
ASUS41 KCLE 291210
RWRCLE
OHIO REGIONAL WEATHER ROUNDUP
NATIONAL WEATHER SERVICE CLEVELAND, OH
800 AM EDT SUN MAY 29 2016

NOTE: "FAIR" INDICATES FEW OR NO CLOUDS BELOW 12,000 FEET WITH NO
SIGNIFICANT WEATHER AND/OR OBSTRUCTIONS TO VISIBILITY.

OHZ001>008-015>018-024>027-034-035-043-044-291300-
   NORTHWEST OHIO

CITY           SKY/WX    TMP DP  RH WIND       PRES   REMARKS
DEFIANCE       CLOUDY    70  64  81 S7        30.05S
FINDLAY        MOSUNNY   71  63  75 S9        30.06F
TOLEDO EXPRESS CLOUDY    70  64  81 SW6       30.05S
TOLEDO EXEC    PTSUNNY   71  64  78 S7        30.06S
LIMA           CLOUDY    69  65  86 S9        30.08S
$$

OHZ009>014-019>023-028>033-038-089-291300-
   NORTHEAST OHIO

CITY           SKY/WX    TMP DP  RH WIND       PRES   REMARKS
CLE-HOPKINS    PTSUNNY   74  64  71 S9        30.12R
CLE-LAKEFRONT  MOSUNNY   73  64  73 SE8       30.09R
CUY CO. ARPT   PTSUNNY   75  66  73 S9        30.11R
LORAIN-ELYRIA  PTSUNNY   71  64  78 S7        30.10S
ASHTABULA      MOSUNNY   70  67  90 S5        30.12R
AKRON-CANTON   PTSUNNY   71  64  78 SW3       30.13S
WOOSTER        MOSUNNY   70  65  84 S8        30.13S
MANSFIELD      MOSUNNY   71  65  81 S5        30.12S
YOUNGSTOWN     CLOUDY    71  65  81 S3        30.12S
$$

OHZ042-051>053-060>062-070>072-077>081-291300-
  SOUTHWEST OHIO

CITY           SKY/WX    TMP DP  RH WIND       PRES   REMARKS
CINC-COVINGTON CLOUDY    69  63  81 CALM      30.12R
CINC-LUNKEN    CLOUDY    67  66  97 SW3       30.12R FOG
HAMILTON       CLOUDY    70  67  90 CALM      30.12R
DAYTON         PTSUNNY   70  62  76 S7        30.11S
WRIGHT-PAT AFB CLOUDY    69  66  90 CALM      30.10S
DAYTON GENERAL CLOUDY    69  62  78 S3        30.11R
WILMINGTON     CLOUDY    71  64  78 S3        30.12S
$$

OHZ036-037-039>041-045>050-054>059-063>069-073>076-082>088-291300-
  CENTRAL AND SOUTHEAST OHIO

CITY           SKY/WX    TMP DP  RH WIND       PRES   REMARKS
COLUMBUS       PTSUNNY   70  66  87 CALM      30.11S
OSU AIRPORT    SUNNY     71  66  84 S6        30.11S
BOLTON FIELD   NOT AVBL
RICKENBACK AFB PTSUNNY   67  66  96 CALM      30.11S FOG
NEWARK         MOSUNNY   67  65  93 CALM      30.12R
MARION         MOSUNNY   69  65  86 S5        30.11S FOG
LANCASTER      PTSUNNY   69  67  93 CALM      30.12S FOG
ZANESVILLE     PTSUNNY   71  66  84 CALM      30.13R HAZE
NEW PHILLY     MOSUNNY   69  64  84 CALM      30.14R
$$




USA.gov is the U.S. government's official web portal to all federal, state and local government web resources and services.